Retour au catalogue

YINHE 2-05

ActifCommunicationsVLEO
NORAD 51948·PAYLOAD·🇨🇳 China
Ce nom de satellite n'a pas encore été confirmé par des sources officielles.

Lancé Mar 5, 2022 depuis Xichang Satellite Launch Center

Loading…

Prochains Passages (prochaines 24 heures)

TLE

FraisSource: Space-Track

Époque: Sep 14, 2026, 23:06 UTC

1 51948U 22023C   26257.96309337  .00011994  00000-0  50224-3 0  9998
2 51948  63.4865 326.5371 0115772 352.2970   7.6359 15.17952227251345

Suivez YINHE 2-05 en temps réel avec AllMySat

Download on the App Store